EW5463 Weather Reports


Display with metric or nautical units.
time (UTC)temp
F
wind
direction
speed
MPH
gust
MPH
rain 1hr
in
rain 24hr
in
rain mn
in
humidity
%
barometer
mb
20260505124550 61 0 0.0 0.0 0.00 0.00 0.00 91 1017.4
20260505123047 58 0 0.0 0.0 0.00 0.00 0.00 93 1017.2
20260505121544 56 0 0.0 0.0 0.00 0.00 0.00 93 1017.1
20260505120043 55 0 0.0 0.0 0.00 0.00 0.00 92 1017.0
20260505114543 54 0 0.0 0.0 0.00 0.00 0.00 92 1017.1
20260505113050 53 0 0.0 0.0 0.00 0.00 0.00 91 1017.1
20260505111540 53 0 0.0 0.0 0.00 0.00 0.00 90 1016.8
20260505101558 54 0 0.0 0.0 0.00 0.00 0.00 88 1016.4
20260505100058 54 0 0.0 0.0 0.00 0.00 0.00 87 1016.2
20260505094540 55 0 0.0 0.0 0.00 0.00 0.00 86 1016.1
20260505093053 55 0 0.0 0.0 0.00 0.00 0.00 86 1016.0
20260505091543 56 0 0.0 0.0 0.00 0.00 0.00 85 1015.7
20260505090044 56 0 0.0 0.0 0.00 0.00 0.00 85 1015.6
20260505084541 56 0 0.0 0.0 0.00 0.00 0.00 84 1015.7
20260505083040 57 0 0.0 0.0 0.00 0.00 0.00 83 1015.6
20260505081558 57 0 0.0 0.0 0.00 0.00 0.00 83 1015.5
20260505080051 58 0 0.0 0.0 0.00 0.00 0.00 82 1015.4
20260505074542 58 0 0.0 0.0 0.00 0.00 0.00 80 1015.3
20260505073041 59 0 0.0 0.0 0.00 0.00 0.00 80 1015.4
20260505071548 59 0 0.0 0.0 0.00 0.00 0.00 78 1015.3
20260505070126 60 0 0.0 0.0 0.00 0.00 0.00 78 1015.4
20260505064538 60 0 0.0 0.0 0.00 0.00 0.00 76 1015.4
20260505063049 60 0 0.0 0.0 0.00 0.00 0.00 76 1015.6
20260505061545 61 0 0.0 0.0 0.00 0.00 0.00 75 1015.7
20260505060043 61 0 0.0 0.0 0.00 0.00 0.00 73 1015.6
20260505054546 62 0 0.0 0.0 0.00 0.00 0.00 73 1015.8
20260505053048 63 0 0.0 0.0 0.00 0.00 0.00 71 1015.8
20260505051544 63 0 0.0 0.0 0.00 0.00 0.00 70 1016.0
20260505041544 65 0 0.0 0.0 0.00 0.00 0.00 65 1016.1
20260505040046 66 0 0.0 0.0 0.00 0.00 0.00 64 1016.0
20260505034547 66 270 0.0 2.0 0.00 0.00 0.00 63 1016.2
20260505033045 67 0 0.0 3.0 0.00 0.00 0.00 62 1016.2
20260505031551 67 270 0.0 4.0 0.00 0.00 0.00 61 1016.3
20260505030045 68 0 0.0 3.0 0.00 0.00 0.00 60 1016.3
20260505024544 68 270 0.0 3.0 0.00 0.00 0.00 60 1016.2
20260505023048 69 0 1.0 3.0 0.00 0.00 0.00 59 1016.0
20260505021545 69 270 1.0 4.0 0.00 0.00 0.00 57 1016.1
20260505020040 70 270 2.0 4.0 0.00 0.00 0.00 56 1016.0
20260505014550 70 270 1.0 5.0 0.00 0.00 0.00 55 1016.0
20260505013042 71 270 2.0 4.0 0.00 0.00 0.00 54 1015.7
20260505011543 72 270 2.0 4.0 0.00 0.00 0.00 51 1015.3
20260505010104 72 270 2.0 6.0 0.00 0.00 0.00 48 1015.1
20260505004546 73 270 1.0 3.0 0.00 0.00 0.00 44 1014.9
20260505003047 73 270 1.0 3.0 0.00 0.00 0.00 43 1014.6
20260505001543 74 270 2.0 3.0 0.00 0.00 0.00 41 1014.5
20260505000048 75 270 2.0 4.0 0.00 0.00 0.00 39 1014.5
20260504234548 76 270 2.0 5.0 0.00 0.00 0.00 38 1014.4
20260504233045 77 270 2.0 5.0 0.00 0.00 0.00 38 1014.2
20260504231547 78 270 3.0 6.0 0.00 0.00 0.00 35 1014.1
20260504230050 78 270 2.0 4.0 0.00 0.00 0.00 33 1014.1
20260504224543 79 270 2.0 8.0 0.00 0.00 0.00 33 1014.0
20260504223059 79 270 2.0 5.0 0.00 0.00 0.00 34 1014.0
20260504221559 80 270 1.0 6.0 0.00 0.00 0.00 33 1014.1
20260504220046 80 270 1.0 4.0 0.00 0.00 0.00 31 1014.0
20260504214543 81 270 0.0 5.0 0.00 0.00 0.00 30 1014.1
20260504213059 82 270 3.0 6.0 0.00 0.00 0.00 28 1014.0
20260504211547 82 270 1.0 5.0 0.00 0.00 0.00 28 1013.9
20260504210049 81 270 4.0 8.0 0.00 0.00 0.00 29 1014.0
20260504204542 81 270 2.0 8.0 0.00 0.00 0.00 29 1014.2
20260504203050 82 270 1.0 8.0 0.00 0.00 0.00 27 1014.4
20260504201542 81 270 1.0 6.0 0.00 0.00 0.00 29 1014.5
20260504200044 82 270 2.0 8.0 0.00 0.00 0.00 29 1014.6
20260504194544 82 270 1.0 9.0 0.00 0.00 0.00 29 1015.0
20260504193045 82 270 0.0 5.0 0.00 0.00 0.00 28 1015.1
20260504191545 84 270 1.0 3.0 0.00 0.00 0.00 27 1015.1
20260504190043 84 270 2.0 8.0 0.00 0.00 0.00 27 1015.3
20260504184543 84 270 2.0 5.0 0.00 0.00 0.00 27 1015.4
20260504183043 84 0 0.0 5.0 0.00 0.00 0.00 28 1015.6
20260504181546 84 270 1.0 6.0 0.00 0.00 0.00 26 1015.7
20260504180049 85 270 0.0 5.0 0.00 0.00 0.00 27 1015.8
20260504174544 85 270 2.0 5.0 0.00 0.00 0.00 28 1016.0
20260504173044 83 270 2.0 8.0 0.00 0.00 0.00 28 1016.1
20260504171545 83 270 0.0 4.0 0.00 0.00 0.00 30 1016.2